Region,Cruise,time,longitude,latitude,Temperature,Salinity,pCO2,Flag_pCO2
unitless,unitless,UTC,degrees_east,degrees_north,degrees Celsius (\u00b0C),PSU,microatmosphere (uatm),unitless
MisPlume(west),GOM_UW_1704,2017-04-06T13:07:17Z,-90.8261,28.9607,23.414,28.263,198.3043149,2
MisPlume(west),GOM_UW_1704,2017-04-06T13:08:46Z,-90.8263,28.9571,23.3458,28.344,199.9349002,2
MisPlume(west),GOM_UW_1704,2017-04-06T13:10:17Z,-90.8265,28.9534,23.3344,28.468,205.1842518,2
MisPlume(west),GOM_UW_1704,2017-04-06T13:11:46Z,-90.8267,28.9497,23.3409,28.553,209.9143781,2
MisPlume(west),GOM_UW_1704,2017-04-06T13:13:15Z,-90.8269,28.9461,23.322,28.63,206.6534239,2
MisPlume(west),GOM_UW_1704,2017-04-06T13:14:43Z,-90.8271,28.9425,23.3412,28.775,206.0740923,2
MisPlume(west),GOM_UW_1704,2017-04-06T13:16:12Z,-90.8273,28.9388,23.2769,28.851,209.6424059,2
MisPlume(west),GOM_UW_1704,2017-04-06T13:17:40Z,-90.8276,28.9352,23.1812,28.907,213.4805406,2
MisPlume(west),GOM_UW_1704,2017-04-06T13:19:09Z,-90.8278,28.9316,23.1554,28.945,223.0077686,2
MisPlume(west),GOM_UW_1704,2017-04-06T13:20:37Z,-90.8281,28.928,23.1009,28.977,227.4878429,2
MisPlume(west),GOM_UW_1704,2017-04-06T13:22:06Z,-90.8283,28.9243,23.1068,29.053,228.3962232,2
MisPlume(west),GOM_UW_1704,2017-04-06T13:23:34Z,-90.8285,28.9206,23.1364,29.091,226.970747,2
MisPlume(west),GOM_UW_1704,2017-04-06T13:25:03Z,-90.8287,28.9169,23.1251,29.132,224.4712655,2
MisPlume(west),GOM_UW_1704,2017-04-06T13:26:31Z,-90.8289,28.9133,23.1433,29.169,222.9045543,2
MisPlume(west),GOM_UW_1704,2017-04-06T13:27:59Z,-90.8291,28.9097,23.1234,29.228,219.3202063,2
MisPlume(west),GOM_UW_1704,2017-04-06T13:29:27Z,-90.8293,28.9062,22.9811,29.454,220.4772928,2
MisPlume(west),GOM_UW_1704,2017-04-06T13:30:57Z,-90.8295,28.9027,22.8476,29.574,229.6164926,2
MisPlume(west),GOM_UW_1704,2017-04-06T13:32:27Z,-90.8302,28.8991,22.7693,29.678,234.0434176,2
MisPlume(west),GOM_UW_1704,2017-04-06T13:33:55Z,-90.8308,28.8957,22.7235,29.752,236.3607953,2
MisPlume(west),GOM_UW_1704,2017-04-06T13:35:26Z,-90.8316,28.8921,22.6862,29.883,237.0375652,2
MisPlume(west),GOM_UW_1704,2017-04-06T13:36:56Z,-90.8323,28.8885,22.6534,30.015,239.9834461,2
MisPlume(west),GOM_UW_1704,2017-04-06T13:38:26Z,-90.8328,28.885,22.6308,30.109,245.2277797,2
MisPlume(west),GOM_UW_1704,2017-04-06T13:39:53Z,-90.8332,28.8815,22.6384,30.215,248.778648,2
MisPlume(west),GOM_UW_1704,2017-04-06T13:41:25Z,-90.8335,28.8778,22.652,30.322,258.3737139,2
MisPlume(west),GOM_UW_1704,2017-04-06T13:42:54Z,-90.8339,28.8742,22.6413,30.388,264.476288,2
MisPlume(west),GOM_UW_1704,2017-04-06T13:44:21Z,-90.8342,28.8706,22.6297,30.448,270.4244413,2
MisPlume(west),GOM_UW_1704,2017-04-06T13:45:53Z,-90.8343,28.8668,22.6231,30.525,272.7007064,2
MisPlume(west),GOM_UW_1704,2017-04-06T13:47:22Z,-90.8343,28.8632,22.5781,30.602,278.5915359,2
MisPlume(west),GOM_UW_1704,2017-04-06T13:48:51Z,-90.8343,28.8595,22.5228,30.609,284.9087707,2
MisPlume(west),GOM_UW_1704,2017-04-06T13:50:21Z,-90.8343,28.8557,22.4907,30.628,288.5263251,2
MisPlume(west),GOM_UW_1704,2017-04-06T13:51:51Z,-90.8343,28.8519,22.4601,30.694,294.7959708,2
MisPlume(west),GOM_UW_1704,2017-04-06T13:53:19Z,-90.8342,28.8482,22.4237,30.682,298.1682697,2
MisPlume(west),GOM_UW_1704,2017-04-06T13:54:48Z,-90.8339,28.8444,22.4,30.764,299.5909878,2
MisPlume(west),GOM_UW_1704,2017-04-06T13:56:17Z,-90.8336,28.8417,22.3766,30.744,305.4536111,2
MisPlume(west),GOM_UW_1704,2017-04-06T13:57:45Z,-90.8334,28.8413,22.3786,30.778,303.728739,2
MisPlume(west),GOM_UW_1704,2017-04-06T13:59:16Z,-90.8332,28.8409,22.3611,30.786,304.9085328,2
MisPlume(west),GOM_UW_1704,2017-04-06T14:00:46Z,-90.8331,28.8404,22.366,30.807,303.0299902,2
MisPlume(west),GOM_UW_1704,2017-04-06T14:02:14Z,-90.8328,28.8401,22.3603,30.812,304.417946,2
MisPlume(west),GOM_UW_1704,2017-04-06T14:03:42Z,-90.8327,28.8397,22.3577,30.824,305.2842113,2
MisPlume(west),GOM_UW_1704,2017-04-06T14:05:10Z,-90.8325,28.8393,22.3525,30.831,307.6620709,2
MisPlume(west),GOM_UW_1704,2017-04-06T14:06:40Z,-90.8323,28.839,22.3494,30.816,307.3630607,2
MisPlume(west),GOM_UW_1704,2017-04-06T14:08:10Z,-90.8321,28.8386,22.3421,30.82,304.6053589,2
MisPlume(west),GOM_UW_1704,2017-04-06T14:09:40Z,-90.8319,28.8382,22.3474,30.838,306.9031637,2
MisPlume(west),GOM_UW_1704,2017-04-06T14:11:10Z,-90.8317,28.8379,22.3434,30.857,309.3940089,2
MisPlume(west),GOM_UW_1704,2017-04-06T14:12:39Z,-90.8315,28.8375,22.3432,30.878,310.7643459,2
MisPlume(west),GOM_UW_1704,2017-04-06T14:14:08Z,-90.8312,28.8371,22.3405,30.893,311.0146166,2
MisPlume(west),GOM_UW_1704,2017-04-06T14:15:39Z,-90.831,28.8367,22.339,30.92,312.3970997,2
MisPlume(west),GOM_UW_1704,2017-04-06T14:17:08Z,-90.8308,28.8364,22.3345,30.935,314.0385252,2
MisPlume(west),GOM_UW_1704,2017-04-06T14:18:37Z,-90.8306,28.8361,22.3337,30.966,315.2428158,2
MisPlume(west),GOM_UW_1704,2017-04-06T14:20:04Z,-90.8303,28.8357,22.3279,30.988,316.5224164,2
MisPlume(west),GOM_UW_1704,2017-04-06T14:21:33Z,-90.8301,28.8354,22.3258,31.017,319.4953773,2
MisPlume(west),GOM_UW_1704,2017-04-06T14:23:02Z,-90.8298,28.835,22.323,31.02,320.31188,2
MisPlume(west),GOM_UW_1704,2017-04-06T14:24:30Z,-90.8295,28.8346,22.3226,31.046,319.9219672,2
MisPlume(west),GOM_UW_1704,2017-04-06T14:25:58Z,-90.8293,28.8343,22.3251,31.053,321.2944944,2
MisPlume(west),GOM_UW_1704,2017-04-06T14:27:26Z,-90.829,28.8339,22.333,30.997,320.8408155,2
MisPlume(west),GOM_UW_1704,2017-04-06T14:28:55Z,-90.8288,28.8336,22.3273,30.997,316.327709,2
MisPlume(west),GOM_UW_1704,2017-04-06T14:30:25Z,-90.8286,28.8332,22.335,31.005,316.2975435,2
MisPlume(west),GOM_UW_1704,2017-04-06T14:31:53Z,-90.8283,28.8329,22.337,31.037,317.2443063,2
MisPlume(west),GOM_UW_1704,2017-04-06T14:33:22Z,-90.828,28.8325,22.3333,31.04,319.6846809,2
MisPlume(west),GOM_UW_1704,2017-04-06T14:34:51Z,-90.8278,28.8321,22.3242,31.041,319.1475978,2
MisPlume(west),GOM_UW_1704,2017-04-06T14:36:19Z,-90.8275,28.8318,22.3322,31.067,320.4981031,2
MisPlume(west),GOM_UW_1704,2017-04-06T14:37:47Z,-90.8273,28.8314,22.329,31.069,320.6092421,2
MisPlume(west),GOM_UW_1704,2017-04-06T14:39:18Z,-90.8271,28.8311,22.3304,31.073,320.248205,2
MisPlume(west),GOM_UW_1704,2017-04-06T14:40:46Z,-90.8269,28.8307,22.3287,31.079,320.4363885,2
MisPlume(west),GOM_UW_1704,2017-04-06T14:42:17Z,-90.8266,28.8303,22.327,31.092,320.260993,2
MisPlume(west),GOM_UW_1704,2017-04-06T14:43:48Z,-90.8272,28.8284,22.3272,31.131,322.2015916,2
MisPlume(west),GOM_UW_1704,2017-04-06T14:45:17Z,-90.8271,28.8249,22.3827,31.278,328.0728912,2
MisPlume(west),GOM_UW_1704,2017-04-06T14:46:46Z,-90.827,28.8212,22.4227,31.321,330.9312431,2
MisPlume(west),GOM_UW_1704,2017-04-06T14:48:15Z,-90.827,28.8175,22.4526,31.294,327.8806936,2
MisPlume(west),GOM_UW_1704,2017-04-06T14:49:44Z,-90.8271,28.8139,22.4412,31.288,325.6410241,2
MisPlume(west),GOM_UW_1704,2017-04-06T14:51:12Z,-90.8272,28.8103,22.449,31.298,319.9874061,2
MisPlume(west),GOM_UW_1704,2017-04-06T14:52:41Z,-90.8274,28.8066,22.4594,31.377,306.205071,2
MisPlume(west),GOM_UW_1704,2017-04-06T14:54:12Z,-90.8275,28.8029,22.4926,31.401,301.4327605,2
MisPlume(west),GOM_UW_1704,2017-04-06T14:55:40Z,-90.8276,28.7993,22.4988,31.405,298.2115908,2
MisPlume(west),GOM_UW_1704,2017-04-06T14:57:12Z,-90.8278,28.7956,22.5171,31.449,292.7915385,2
MisPlume(west),GOM_UW_1704,2017-04-06T14:58:40Z,-90.828,28.792,22.5165,31.483,288.2596217,2
MisPlume(west),GOM_UW_1704,2017-04-06T15:00:09Z,-90.8281,28.7883,22.5208,31.51,289.4376103,2
MisPlume(west),GOM_UW_1704,2017-04-06T15:01:41Z,-90.8283,28.7845,22.5556,31.534,292.3406739,2
MisPlume(west),GOM_UW_1704,2017-04-06T15:03:09Z,-90.8284,28.7809,22.5404,31.51,291.8144754,2
MisPlume(west),GOM_UW_1704,2017-04-06T15:04:39Z,-90.8286,28.7772,22.5323,31.519,292.0886387,2
MisPlume(west),GOM_UW_1704,2017-04-06T15:06:11Z,-90.8288,28.7734,22.5403,31.514,295.0266219,2
MisPlume(west),GOM_UW_1704,2017-04-06T15:07:39Z,-90.829,28.7698,22.5597,31.535,294.0474551,2
MisPlume(west),GOM_UW_1704,2017-04-06T15:09:09Z,-90.8293,28.7661,22.5705,31.47,293.7563257,2
MisPlume(west),GOM_UW_1704,2017-04-06T15:10:39Z,-90.8296,28.7624,22.5715,31.462,291.2849417,2
MisPlume(west),GOM_UW_1704,2017-04-06T15:12:07Z,-90.8299,28.7587,22.5771,31.461,292.9123173,2
MisPlume(west),GOM_UW_1704,2017-04-06T15:13:36Z,-90.8302,28.7551,22.6137,31.44,291.3607465,2
MisPlume(west),GOM_UW_1704,2017-04-06T15:15:04Z,-90.8305,28.7515,22.6069,31.4,289.8924325,2
MisPlume(west),GOM_UW_1704,2017-04-06T15:16:34Z,-90.8308,28.7478,22.6271,31.397,288.1687617,2
MisPlume(west),GOM_UW_1704,2017-04-06T15:18:05Z,-90.8311,28.744,22.6154,31.351,286.5346031,2
MisPlume(west),GOM_UW_1704,2017-04-06T15:19:33Z,-90.8313,28.7404,22.6481,31.332,285.5994975,2
MisPlume(west),GOM_UW_1704,2017-04-06T15:21:02Z,-90.8316,28.7367,22.6271,31.321,280.645103,2
MisPlume(west),GOM_UW_1704,2017-04-06T15:22:31Z,-90.8319,28.7331,22.6437,31.312,278.404761,2
MisPlume(west),GOM_UW_1704,2017-04-06T15:24:00Z,-90.8322,28.7293,22.6231,31.272,277.961316,2
MisPlume(west),GOM_UW_1704,2017-04-06T15:25:27Z,-90.8325,28.7257,22.6217,31.234,276.1288465,2
MisPlume(west),GOM_UW_1704,2017-04-06T15:26:57Z,-90.8328,28.7219,22.633,31.215,273.4785982,2
MisPlume(west),GOM_UW_1704,2017-04-06T15:28:25Z,-90.8331,28.7183,22.683,31.218,274.2176218,2
MisPlume(west),GOM_UW_1704,2017-04-06T15:29:56Z,-90.8334,28.7169,22.6729,31.2,273.088911,2
MisPlume(west),GOM_UW_1704,2017-04-06T15:31:24Z,-90.8334,28.7166,22.6757,31.197,268.3693659,2
MisPlume(west),GOM_UW_1704,2017-04-06T15:32:53Z,-90.8334,28.7162,22.6695,31.191,267.1253026,2
MisPlume(west),GOM_UW_1704,2017-04-06T15:34:23Z,-90.8334,28.7158,22.6677,31.187,267.9473871,2
MisPlume(west),GOM_UW_1704,2017-04-06T15:35:52Z,-90.8334,28.7153,22.6731,31.186,267.4128075,2
MisPlume(west),GOM_UW_1704,2017-04-06T15:37:22Z,-90.8334,28.7149,22.6785,31.188,267.5284984,2
MisPlume(west),GOM_UW_1704,2017-04-06T15:38:53Z,-90.8334,28.7146,22.6728,31.183,267.6271671,2
MisPlume(west),GOM_UW_1704,2017-04-06T15:40:23Z,-90.8333,28.7142,22.6722,31.182,269.9757717,2
MisPlume(west),GOM_UW_1704,2017-04-06T15:41:52Z,-90.8333,28.7138,22.6769,31.182,267.6446197,2
MisPlume(west),GOM_UW_1704,2017-04-06T15:43:23Z,-90.8333,28.7134,22.6783,31.176,266.2313799,2
MisPlume(west),GOM_UW_1704,2017-04-06T15:44:53Z,-90.8333,28.713,22.6886,31.176,266.6925382,2
MisPlume(west),GOM_UW_1704,2017-04-06T15:46:22Z,-90.8332,28.7126,22.7109,31.185,267.6548692,2
MisPlume(west),GOM_UW_1704,2017-04-06T15:47:53Z,-90.8332,28.7122,22.7181,31.189,269.756451,2
MisPlume(west),GOM_UW_1704,2017-04-06T15:49:21Z,-90.8332,28.7117,22.7093,31.187,266.3960534,2
MisPlume(west),GOM_UW_1704,2017-04-06T15:50:50Z,-90.8332,28.7113,22.6924,31.18,266.4658037,2
MisPlume(west),GOM_UW_1704,2017-04-06T15:52:20Z,-90.8331,28.7108,22.6627,31.16,267.4521987,2
MisPlume(west),GOM_UW_1704,2017-04-06T15:53:50Z,-90.8331,28.7104,22.6744,31.159,266.9413201,2
MisPlume(west),GOM_UW_1704,2017-04-06T15:55:19Z,-90.833,28.71,22.6976,31.166,266.0606231,2
MisPlume(west),GOM_UW_1704,2017-04-06T15:56:47Z,-90.8329,28.7096,22.7156,31.174,266.4813437,2
MisPlume(west),GOM_UW_1704,2017-04-06T15:58:15Z,-90.8329,28.7092,22.7136,31.175,265.3951606,2
MisPlume(west),GOM_UW_1704,2017-04-06T15:59:42Z,-90.8328,28.7088,22.7096,31.176,266.1357628,2
MisPlume(west),GOM_UW_1704,2017-04-06T16:01:13Z,-90.8333,28.7071,22.7057,31.178,266.0583787,2
MisPlume(west),GOM_UW_1704,2017-04-06T16:02:44Z,-90.8331,28.7043,22.7574,31.147,267.1879849,2
MisPlume(west),GOM_UW_1704,2017-04-06T16:04:15Z,-90.8329,28.7015,22.785,31.143,264.6724072,2
MisPlume(west),GOM_UW_1704,2017-04-06T16:16:54Z,-90.8323,28.6782,22.9026,30.995,248.1503918,2
MisPlume(west),GOM_UW_1704,2017-04-06T16:18:23Z,-90.8323,28.6755,22.9169,30.976,245.4939391,2
MisPlume(west),GOM_UW_1704,2017-04-06T16:19:54Z,-90.8323,28.6727,22.8826,30.975,243.8120516,2
MisPlume(west),GOM_UW_1704,2017-04-06T16:21:22Z,-90.8323,28.67,22.9341,31.069,242.5338729,2
MisPlume(west),GOM_UW_1704,2017-04-06T16:22:50Z,-90.8324,28.6674,22.9312,31.062,243.8310836,2
MisPlume(west),GOM_UW_1704,2017-04-06T16:24:19Z,-90.8326,28.6647,22.9138,31.048,243.2637307,2
MisPlume(west),GOM_UW_1704,2017-04-06T16:25:47Z,-90.8328,28.6614,22.9117,31.031,239.0733119,2
MisPlume(west),GOM_UW_1704,2017-04-06T16:27:16Z,-90.8329,28.6576,22.9002,31.074,239.7061115,2
MisPlume(west),GOM_UW_1704,2017-04-06T16:28:44Z,-90.833,28.6539,22.8674,31.09,239.6889252,2
MisPlume(west),GOM_UW_1704,2017-04-06T16:30:12Z,-90.833,28.6503,22.876,31.129,241.5498745,2
MisPlume(west),GOM_UW_1704,2017-04-06T16:31:41Z,-90.8331,28.6466,22.8797,31.151,241.5156278,2
MisPlume(west),GOM_UW_1704,2017-04-06T16:33:10Z,-90.8331,28.6429,22.873,31.217,240.9355785,2
MisPlume(west),GOM_UW_1704,2017-04-06T16:34:39Z,-90.8332,28.6392,22.865,31.224,241.8314453,2
MisPlume(west),GOM_UW_1704,2017-04-06T16:36:07Z,-90.8333,28.6355,22.8551,31.241,240.5090168,2
MisPlume(west),GOM_UW_1704,2017-04-06T16:37:37Z,-90.8333,28.6317,22.8384,31.27,241.8813833,2
MisPlume(west),GOM_UW_1704,2017-04-06T16:39:08Z,-90.8333,28.6279,22.8352,31.361,242.0842668,2
MisPlume(west),GOM_UW_1704,2017-04-06T16:40:35Z,-90.8333,28.6243,22.8345,31.387,243.7478543,2
MisPlume(west),GOM_UW_1704,2017-04-06T16:42:04Z,-90.8333,28.6206,22.8324,31.381,243.794971,2
MisPlume(west),GOM_UW_1704,2017-04-06T16:43:32Z,-90.8333,28.617,22.8311,31.402,243.5873764,2
MisPlume(west),GOM_UW_1704,2017-04-06T16:45:00Z,-90.8334,28.6133,22.8124,31.378,240.4548415,2
MisPlume(west),GOM_UW_1704,2017-04-06T16:46:29Z,-90.8334,28.6096,22.815,31.343,239.6462039,2
MisPlume(west),GOM_UW_1704,2017-04-06T16:47:57Z,-90.8334,28.6085,22.8152,31.395,241.1326586,2
MisPlume(west),GOM_UW_1704,2017-04-06T16:49:28Z,-90.8333,28.6082,22.8229,31.404,238.6661945,2
MisPlume(west),GOM_UW_1704,2017-04-06T16:50:56Z,-90.8334,28.6079,22.8223,31.411,239.3451138,2
MisPlume(west),GOM_UW_1704,2017-04-06T16:52:27Z,-90.8335,28.6075,22.821,31.423,239.4504645,2
MisPlume(west),GOM_UW_1704,2017-04-06T16:53:56Z,-90.8336,28.6071,22.8215,31.422,238.3451043,2
MisPlume(west),GOM_UW_1704,2017-04-06T16:55:25Z,-90.8337,28.6067,22.8235,31.425,239.8382368,2
MisPlume(west),GOM_UW_1704,2017-04-06T16:56:53Z,-90.8337,28.6064,22.8171,31.433,237.8099412,2
MisPlume(west),GOM_UW_1704,2017-04-06T16:58:20Z,-90.8337,28.6061,22.8214,31.431,237.7919681,2
MisPlume(west),GOM_UW_1704,2017-04-06T16:59:50Z,-90.8337,28.6057,22.8201,31.428,237.56364,2
MisPlume(west),GOM_UW_1704,2017-04-06T17:01:18Z,-90.8338,28.6054,22.8165,31.426,237.777913,2
MisPlume(west),GOM_UW_1704,2017-04-06T17:02:47Z,-90.8338,28.605,22.8185,31.43,237.8641281,2
MisPlume(west),GOM_UW_1704,2017-04-06T17:04:18Z,-90.8338,28.6047,22.8228,31.443,235.9878519,2
MisPlume(west),GOM_UW_1704,2017-04-06T17:05:48Z,-90.8338,28.6043,22.8246,31.459,236.9488134,2
MisPlume(west),GOM_UW_1704,2017-04-06T17:07:18Z,-90.8337,28.604,22.8243,31.477,236.4290293,2
MisPlume(west),GOM_UW_1704,2017-04-06T17:08:46Z,-90.8336,28.6037,22.8249,31.495,236.4854819,2
MisPlume(west),GOM_UW_1704,2017-04-06T17:10:14Z,-90.8336,28.6034,22.8281,31.5,236.6045504,2
MisPlume(west),GOM_UW_1704,2017-04-06T17:11:43Z,-90.8336,28.6031,22.8289,31.5,236.779879,2
MisPlume(west),GOM_UW_1704,2017-04-06T17:13:13Z,-90.8336,28.6028,22.8293,31.501,237.1896834,2
MisPlume(west),GOM_UW_1704,2017-04-06T17:14:41Z,-90.8336,28.6024,22.8296,31.501,235.5601549,2
MisPlume(west),GOM_UW_1704,2017-04-06T17:16:09Z,-90.8336,28.6021,22.8327,31.503,235.4772145,2
MisPlume(west),GOM_UW_1704,2017-04-06T17:17:37Z,-90.8336,28.6017,22.8314,31.516,236.4966386,2
MisPlume(west),GOM_UW_1704,2017-04-06T17:19:06Z,-90.8336,28.6014,22.8342,31.52,234.8960562,2
MisPlume(west),GOM_UW_1704,2017-04-06T17:20:37Z,-90.8335,28.601,22.8353,31.521,234.3006784,2
MisPlume(west),GOM_UW_1704,2017-04-06T17:22:05Z,-90.8335,28.6008,22.8381,31.529,235.3809592,2
MisPlume(west),GOM_UW_1704,2017-04-06T17:23:35Z,-90.8337,28.5995,22.8332,31.537,235.3661986,2
MisPlume(west),GOM_UW_1704,2017-04-06T17:25:05Z,-90.8335,28.5969,22.8257,31.562,235.8430256,2
MisPlume(west),GOM_UW_1704,2017-04-06T17:26:34Z,-90.8333,28.5943,22.8272,31.609,237.9199759,2
MisPlume(west),GOM_UW_1704,2017-04-06T17:28:02Z,-90.8331,28.5917,22.8208,31.634,239.0953452,2
MisPlume(west),GOM_UW_1704,2017-04-06T17:29:34Z,-90.8329,28.589,22.8259,31.676,239.4869488,2
MisPlume(west),GOM_UW_1704,2017-04-06T17:31:02Z,-90.8328,28.5864,22.8201,31.767,241.6466458,2
MisPlume(west),GOM_UW_1704,2017-04-06T17:32:29Z,-90.8329,28.5838,22.8205,31.78,241.0718715,2
MisPlume(west),GOM_UW_1704,2017-04-06T17:33:59Z,-90.8329,28.5812,22.8072,31.807,240.2674155,2
MisPlume(west),GOM_UW_1704,2017-04-06T17:35:28Z,-90.8329,28.5787,22.8003,31.845,243.1053822,2
MisPlume(west),GOM_UW_1704,2017-04-06T17:36:56Z,-90.833,28.5759,22.8126,31.87,243.1342465,2
MisPlume(west),GOM_UW_1704,2017-04-06T17:38:26Z,-90.833,28.5722,22.8167,31.951,245.063246,2
MisPlume(west),GOM_UW_1704,2017-04-06T17:39:57Z,-90.8331,28.5684,22.8148,32.031,246.1838464,2
MisPlume(west),GOM_UW_1704,2017-04-06T17:41:26Z,-90.8332,28.5647,22.8174,32.05,250.0743077,2
MisPlume(west),GOM_UW_1704,2017-04-06T17:42:55Z,-90.8333,28.561,22.8204,32.05,246.7166814,2
MisPlume(west),GOM_UW_1704,2017-04-06T17:44:27Z,-90.8334,28.5571,22.8174,32.093,249.3495828,2
MisPlume(west),GOM_UW_1704,2017-04-06T17:45:58Z,-90.8334,28.5533,22.8213,32.162,246.1682768,2
MisPlume(west),GOM_UW_1704,2017-04-06T17:47:25Z,-90.8335,28.5497,22.823,32.176,247.360087,2
MisPlume(west),GOM_UW_1704,2017-04-06T17:48:54Z,-90.8336,28.5459,22.8242,32.225,247.6630354,2
MisPlume(west),GOM_UW_1704,2017-04-06T17:50:22Z,-90.8336,28.5422,22.8172,32.268,249.7344798,2
MisPlume(west),GOM_UW_1704,2017-04-06T17:51:53Z,-90.8335,28.5384,22.8175,32.294,251.4731618,2
MisPlume(west),GOM_UW_1704,2017-04-06T17:53:21Z,-90.8335,28.5347,22.8241,32.465,250.552933,2
MisPlume(west),GOM_UW_1704,2017-04-06T17:54:49Z,-90.8334,28.531,22.8228,32.552,257.2135077,2
MisPlume(west),GOM_UW_1704,2017-04-06T17:56:18Z,-90.8333,28.5273,22.8254,32.589,257.2737584,2
MisPlume(west),GOM_UW_1704,2017-04-06T17:57:46Z,-90.8332,28.5236,22.83,32.637,258.2874365,2
MisPlume(west),GOM_UW_1704,2017-04-06T17:59:15Z,-90.8332,28.5199,22.8341,32.689,261.0605649,2
MisPlume(west),GOM_UW_1704,2017-04-06T18:00:44Z,-90.8331,28.5162,22.8298,32.725,260.7474453,2
MisPlume(west),GOM_UW_1704,2017-04-06T18:02:16Z,-90.8331,28.5123,22.8257,32.775,260.776858,2
MisPlume(west),GOM_UW_1704,2017-04-06T18:03:43Z,-90.833,28.5087,22.8369,32.885,260.7257531,2
MisPlume(west),GOM_UW_1704,2017-04-06T18:05:12Z,-90.833,28.5051,22.8318,32.922,263.8974508,2
MisPlume(west),GOM_UW_1704,2017-04-06T18:06:43Z,-90.833,28.5016,22.8367,32.935,263.9996046,2
MisPlume(west),GOM_UW_1704,2017-04-06T18:08:11Z,-90.833,28.5008,22.8401,32.97,263.8321093,2
MisPlume(west),GOM_UW_1704,2017-04-06T18:09:42Z,-90.8329,28.5005,22.8498,32.985,264.9420722,2
MisPlume(west),GOM_UW_1704,2017-04-06T18:11:10Z,-90.8328,28.5002,22.8495,33.008,265.3549999,2
MisPlume(west),GOM_UW_1704,2017-04-06T18:12:38Z,-90.8328,28.4999,22.8525,33.012,264.5126329,2
MisPlume(west),GOM_UW_1704,2017-04-06T18:14:06Z,-90.8327,28.4996,22.8504,33.024,265.3881026,2
MisPlume(west),GOM_UW_1704,2017-04-06T18:15:35Z,-90.8327,28.4993,22.8545,33.018,266.4391414,2
MisPlume(west),GOM_UW_1704,2017-04-06T18:17:02Z,-90.8326,28.4989,22.8562,33.021,263.9928487,2
MisPlume(west),GOM_UW_1704,2017-04-06T18:18:31Z,-90.8325,28.4987,22.8581,33.013,264.6701187,2
MisPlume(west),GOM_UW_1704,2017-04-06T18:20:01Z,-90.8325,28.4984,22.865,33.001,264.5252027,2
MisPlume(west),GOM_UW_1704,2017-04-06T18:21:30Z,-90.8323,28.4981,22.8607,33.011,265.628883,2
MisPlume(west),GOM_UW_1704,2017-04-06T18:22:59Z,-90.8322,28.4978,22.8619,33.008,265.6649687,2
MisPlume(west),GOM_UW_1704,2017-04-06T18:24:27Z,-90.8321,28.4975,22.8653,33.015,264.0221658,2
MisPlume(west),GOM_UW_1704,2017-04-06T18:25:57Z,-90.832,28.4972,22.861,33.03,265.4961148,2
MisPlume(west),GOM_UW_1704,2017-04-06T18:27:27Z,-90.8319,28.4969,22.8662,33.031,265.182969,2
MisPlume(west),GOM_UW_1704,2017-04-06T18:28:58Z,-90.8318,28.4966,22.8713,33.046,264.0871094,2
MisPlume(west),GOM_UW_1704,2017-04-06T18:30:29Z,-90.8316,28.4964,22.8735,33.057,264.7373499,2
MisPlume(west),GOM_UW_1704,2017-04-06T18:31:59Z,-90.8313,28.4961,22.8746,33.076,267.1268824,2
MisPlume(west),GOM_UW_1704,2017-04-06T18:33:29Z,-90.831,28.496,22.8758,33.07,266.3264164,2
MisPlume(west),GOM_UW_1704,2017-04-06T18:34:57Z,-90.8309,28.4957,22.8737,33.076,265.7543135,2
MisPlume(west),GOM_UW_1704,2017-04-06T18:36:24Z,-90.8307,28.4955,22.8842,33.086,264.8579673,2
MisPlume(west),GOM_UW_1704,2017-04-06T18:37:54Z,-90.8305,28.4953,22.8822,33.109,266.2418928,2
MisPlume(west),GOM_UW_1704,2017-04-06T18:39:22Z,-90.8303,28.4951,22.889,33.123,265.061281,2
MisPlume(west),GOM_UW_1704,2017-04-06T18:40:53Z,-90.83,28.4949,22.89,33.118,265.8211179,2
MisPlume(west),GOM_UW_1704,2017-04-06T18:42:21Z,-90.8299,28.4947,22.8847,33.134,265.6192231,2
MisPlume(west),GOM_UW_1704,2017-04-06T18:43:50Z,-90.8297,28.4944,22.885,33.145,267.0594815,2
MisPlume(west),GOM_UW_1704,2017-04-06T18:45:18Z,-90.8295,28.4942,22.8867,33.151,266.8495242,2
MisPlume(west),GOM_UW_1704,2017-04-06T18:46:46Z,-90.8292,28.494,22.8873,33.159,267.0990565,2
MisPlume(west),GOM_UW_1704,2017-04-06T18:48:16Z,-90.8292,28.4937,22.8893,33.167,266.4642505,2
MisPlume(west),GOM_UW_1704,2017-04-06T18:49:45Z,-90.829,28.4935,22.8942,33.177,267.7548335,2
MisPlume(west),GOM_UW_1704,2017-04-06T18:51:13Z,-90.8289,28.4933,22.8969,33.194,266.6080723,2
MisPlume(west),GOM_UW_1704,2017-04-06T18:52:44Z,-90.8287,28.493,22.8989,33.216,267.1691533,2
MisPlume(west),GOM_UW_1704,2017-04-06T18:54:11Z,-90.8285,28.4928,22.9004,33.228,268.9599849,2
MisPlume(west),GOM_UW_1704,2017-04-06T18:55:40Z,-90.8283,28.4926,22.9051,33.27,273.0646092,2
MisPlume(west),GOM_UW_1704,2017-04-06T18:57:09Z,-90.8281,28.4923,22.9006,33.307,275.8139324,2
MisPlume(west),GOM_UW_1704,2017-04-06T18:58:37Z,-90.828,28.4921,22.9034,33.318,272.7075847,2
MisPlume(west),GOM_UW_1704,2017-04-06T19:00:08Z,-90.8278,28.4919,22.9089,33.32,276.0529167,2
MisPlume(west),GOM_UW_1704,2017-04-06T19:01:37Z,-90.8276,28.4918,22.9095,33.317,273.7568184,2
MisPlume(west),GOM_UW_1704,2017-04-06T19:03:08Z,-90.8275,28.4914,22.9083,33.31,274.0938284,2
MisPlume(west),GOM_UW_1704,2017-04-06T19:04:37Z,-90.8274,28.4911,22.9108,33.299,271.8770963,2
MisPlume(west),GOM_UW_1704,2017-04-06T19:06:08Z,-90.8273,28.4907,22.9091,33.298,270.9310974,2
MisPlume(west),GOM_UW_1704,2017-04-06T19:07:37Z,-90.8271,28.4906,22.9114,33.295,271.8105344,2
MisPlume(west),GOM_UW_1704,2017-04-06T19:09:05Z,-90.8269,28.4903,22.91,33.304,273.1846531,2
MisPlume(west),GOM_UW_1704,2017-04-06T19:10:33Z,-90.8267,28.49,22.913,33.313,271.693922,2
MisPlume(west),GOM_UW_1704,2017-04-06T19:12:01Z,-90.8264,28.4898,22.9147,33.331,273.1650751,2
MisPlume(west),GOM_UW_1704,2017-04-06T19:13:30Z,-90.8262,28.4896,22.9171,33.335,272.9870735,2
MisPlume(west),GOM_UW_1704,2017-04-06T19:26:07Z,-90.8334,28.4999,22.9134,33.09,274.6557136,2
MisPlume(west),GOM_UW_1704,2017-04-06T19:27:35Z,-90.8339,28.4997,22.9151,33.047,272.5366495,2
MisPlume(west),GOM_UW_1704,2017-04-06T19:29:03Z,-90.834,28.4993,22.9154,33.061,268.4756403,2
MisPlume(west),GOM_UW_1704,2017-04-06T19:30:33Z,-90.8339,28.4989,22.9219,33.066,268.4459119,2
MisPlume(west),GOM_UW_1704,2017-04-06T19:32:02Z,-90.8338,28.4986,22.9182,33.078,267.5999356,2
MisPlume(west),GOM_UW_1704,2017-04-06T19:33:31Z,-90.8336,28.4983,22.915,33.089,267.7124422,2
MisPlume(west),GOM_UW_1704,2017-04-06T19:34:58Z,-90.8334,28.498,22.9218,33.104,269.4373139,2
MisPlume(west),GOM_UW_1704,2017-04-06T19:36:27Z,-90.8333,28.4977,22.9151,33.138,270.8815721,2
MisPlume(west),GOM_UW_1704,2017-04-06T19:37:57Z,-90.8331,28.4974,22.924,33.12,268.3679256,2
MisPlume(west),GOM_UW_1704,2017-04-06T19:39:24Z,-90.8329,28.4971,22.9264,33.121,267.0181529,2
MisPlume(west),GOM_UW_1704,2017-04-06T19:40:54Z,-90.8328,28.4968,22.9284,33.127,268.5936704,2
MisPlume(west),GOM_UW_1704,2017-04-06T19:42:25Z,-90.8326,28.4965,22.9309,33.121,268.8148314,2
MisPlume(west),GOM_UW_1704,2017-04-06T19:43:53Z,-90.8325,28.4962,22.9331,33.13,268.9454309,2
MisPlume(west),GOM_UW_1704,2017-04-06T19:45:21Z,-90.8323,28.4959,22.9293,33.165,268.8409914,2